CAPE
0 0 0 0 0 0 0 0 0 0 0 0 0 0 0 0 0 0 0 0 0 240 433 133 427 632 404 331 465 193 209 97 34 53 48 104 46 161 190 194 17 122 431 617 752
0 0 0 0 0 0 0 0 0 0 0 0 0 0 0 0 0 0 0 552 80 437 7 169 320 552 463 514 37 66 107 172 16 0 46 75 126 186 239 25 124 232 463 596 745
0 0 0 0 0 0 0 0 0 0 0 0 0 0 0 0 0 0 585 455 125 344 0 7 174 2 47 49 1 1 1 2 29 0 2 27 88 186 170 43 300 343 508 556 888
0 0 0 0 0 0 0 0 0 0 0 0 0 0 0 0 0 0 935 506 258 4 0 0 0 0 12 21 5 0 1 15 8 0 0 23 59 158 74 185 208 479 550 483 840
0 0 0 0 0 0 0 0 0 0 0 0 0 0 0 0 0 5 1201 470 0 0 137 0 0 0 0 5 0 3 2 6 4 8 0 0 0 40 50 191 154 493 503 525 694
0 0 0 0 0 0 0 0 0 0 0 0 0 0 0 0 0 0 0 0 0 0 44 0 0 0 0 0 0 0 0 0 0 0 12 0 1 37 30 120 277 360 462 531 560
0 0 0 0 0 0 0 0 0 0 0 0 0 0 0 0 0 0 0 0 0 0 0 0 0 0 0 0 0 0 0 0 0 0 9 28 9 9 2 68 370 310 489 764 907
0 0 0 0 0 0 0 0 0 0 0 0 0 0 0 0 0 0 0 0 0 0 0 0 0 0 0 0 0 0 0 0 0 1 31 6 22 13 1 33 301 451 520 630 904
0 0 0 0 0 0 0 0 0 0 0 0 0 0 0 0 0 0 0 0 0 0 0 0 0 0 0 0 0 0 0 0 0 44 44 44 24 42 30 56 311 559 773 681 899
0 0 0 0 0 0 0 0 0 0 0 0 0 0 0 0 0 0 0 0 0 0 0 0 0 0 0 0 0 0 0 0 0 36 47 40 0 8 3 10 87 189 1037 1061 887
0 0 0 0 0 0 0 0 0 0 0 0 0 0 0 0 0 0 0 0 0 0 0 0 0 0 0 0 0 0 0 0 0 0 0 0 0 0 0 0 22 305 825 1292 1151
0 0 0 0 0 0 0 0 0 0 0 0 0 0 0 0 0 0 0 0 0 0 0 0 0 0 0 0 0 0 0 0 0 0 0 0 0 0 0 10 4 25 290 864 1033
0 0 0 0 0 0 0 0 0 0 0 0 0 0 0 0 0 0 0 0 0 0 0 0 0 0 0 0 0 0 0 0 0 0 0 0 0 0 0 0 1 22 59 364 897
0 0 0 0 0 0 0 0 0 0 0 0 0 0 0 0 0 0 0 0 0 0 0 0 0 0 0 0 0 0 0 0 0 0 0 0 0 1 0 28 36 14 39 3 979
0 0 0 0 0 0 0 0 0 0 0 0 0 0 0 0 0 0 0 0 0 0 0 0 0 0 0 0 0 0 0 0 0 0 0 0 0 0 36 170 43 82 45 34 236
0 0 0 0 0 0 0 0 0 0 0 0 0 0 0 0 0 0 0 0 0 0 0 0 0 0 0 0 0 0 0 0 0 0 0 0 0 0 0 28 6 31 271 62 44
0 0 0 0 0 0 0 0 0 0 0 0 0 13 2 0 0 0 0 26 0 0 0 0 0 0 0 0 0 0 0 0 0 0 0 0 0 0 6 55 24 11 100 38 93
0 0 0 0 0 0 0 0 0 0 0 0 1 0 4 0 0 0 0 0 37 0 0 0 0 0 0 0 0 0 0 0 0 0 0 49 2 29 81 69 0 0 14 97 174
0 0 0 0 0 0 0 0 0 0 0 0 0 33 10 1 0 0 0 0 0 3 2 1 0 0 0 0 0 0 0 0 0 0 0 0 18 68 138 0 0 23 257 428 1057
0 0 0 0 0 0 0 0 0 0 0 0 4 0 5 12 1 0 1 1 0 1 2 0 9 0 4 3 0 0 0 0 0 3 14 1 106 250 298 65 802 1171 1227 1730 1800
0 0 0 0 0 0 0 0 0 0 0 0 0 0 1 2 13 0 1 0 0 0 0 0 25 0 3 29 4 0 0 0 1 30 24 38 126 311 528 805 1635 1632 1789 2091 2433
0 0 0 0 0 0 0 0 0 0 0 0 0 0 0 0 0 2 12 54 12 46 3 2 36 13 0 19 4 3 0 0 2 13 34 106 98 19 307 617 1543 1815 1837 2272 2581
0 0 0 0 0 0 0 0 0 0 0 0 0 0 0 0 0 0 0 0 0 71 306 249 113 179 75 16 11 0 0 9 38 137 69 120 245 237 577 741 1862 2084 2028 2658 3027
0 0 0 0 0 0 0 1 0 0 0 0 0 0 0 0 0 0 0 0 0 20 1110 198 60 246 33 78 42 40 4 1 33 158 46 18 147 825 645 1140 1388 2464 2729 2761 2998
0 0 0 4 116 72 2 0 2 0 8 0 0 0 0 0 0 0 0 0 1 5 36 252 699 183 49 4 0 0 0 15 9 13 47 1042 1360 558 437 1550 1802 2568 2447 2467 3004
0 0 0 0 0 49 28 31 27 52 10 0 3 3 0 0 0 0 0 0 10 11 110 297 576 227 93 8 7 0 2 1 4 5 5 195 727 354 307 1568 1702 1824 2499 2664 2744
0 0 0 0 0 51 71 30 130 31 21 0 1 0 0 6 0 0 0 0 14 318 403 86 500 688 376 117 230 129 29 52 11 317 369 216 462 1464 1912 2336 2503 2014 1673 2065 2337
CIN
0 0 0 0 0 0 0 0 0 0 0 0 0 0 0 0 0 0 0 0 0 -926 -705 -326 -200 -94 -99 -80 -47 -27 -8 -30 -5 -1 -85 -4 -59 -9 -19 -22 -60 -33 -16 -45 -90
0 0 0 0 0 0 0 0 0 0 0 0 0 0 0 0 0 0 0 -730 -994 -805 -184 -168 -71 -50 -35 -26 -23 -8 -35 -34 -3 0 -11 -13 -11 -13 -392 -136 -41 -57 -69 -95 -109
0 0 0 0 0 0 0 0 0 0 0 0 0 0 0 0 0 0 -822 -809 -939 -712 0 -79 -84 -5 -122 -80 0 0 -3 -3 -2 0 0 -40 -15 -25 -203 -166 -24 -52 -78 -112 -97
0 0 0 0 0 0 0 0 0 0 0 0 0 0 0 0 0 0 -735 -813 -854 -22 0 0 0 0 -22 -3 -2 0 0 -3 -1 0 0 -1 -2 -14 -4 -9 -2 -37 -75 -115 -104
0 0 0 0 0 0 0 0 0 0 0 0 0 0 0 0 0 -304 -670 -762 0 0 -188 0 0 0 0 -2 0 0 -1 -2 -1 -2 0 0 0 -3 -2 -2 -17 -43 -64 -109 -111
0 0 0 0 0 0 0 0 0 0 0 0 0 0 0 0 0 0 0 0 0 0 -232 0 0 0 0 0 0 0 0 0 0 0 -4 0 -2 0 -1 -2 -6 -32 -60 -81 -101
0 0 0 0 0 0 0 0 0 0 0 0 0 0 0 0 0 0 0 0 0 0 0 0 0 0 0 0 0 0 0 0 0 0 -6 -14 -3 -2 -10 -3 -2 -26 -58 -53 -66
0 0 0 0 0 0 0 0 0 0 0 0 0 0 0 0 0 0 0 0 0 0 0 0 0 0 0 0 0 0 0 0 0 -1 -4 -17 -8 -42 -25 -30 -9 -8 -41 -53 -63
0 0 0 0 0 0 0 0 0 0 0 0 0 0 0 0 0 0 0 0 0 0 0 0 0 0 0 0 0 0 0 0 0 0 -6 -33 -2 -38 -12 -3 0 -16 -16 -39 -44
0 0 0 0 0 0 0 0 0 0 0 0 0 0 0 0 0 0 0 0 0 0 0 0 0 0 0 0 0 0 0 0 0 -8 -8 -4 -1 -3 -1 -20 -3 -33 -10 -18 -39
0 0 0 0 0 0 0 0 0 0 0 0 0 0 0 0 0 0 0 0 0 0 0 0 0 0 0 0 0 0 0 0 0 0 0 0 0 0 0 0 -2 -14 -17 -15 -19
0 0 0 0 0 0 0 0 0 0 0 0 0 0 0 0 0 0 0 0 0 0 0 0 0 0 0 0 0 0 0 0 0 0 0 0 0 0 0 -3 -2 0 -17 -9 -13
0 0 0 0 0 0 0 0 0 0 0 0 0 0 0 0 0 0 0 0 0 0 0 0 0 0 0 0 0 0 0 0 0 0 0 0 0 0 0 0 -2 -2 -7 -9 -11
0 0 0 0 0 0 0 0 0 0 0 0 0 0 0 0 0 0 0 0 0 0 0 0 0 0 0 0 0 0 0 0 0 0 0 0 0 0 0 -1 -2 -7 -10 -1 -13
0 0 0 0 0 0 0 0 0 0 0 0 0 0 0 0 0 0 0 0 0 0 0 0 0 0 0 0 0 0 0 0 0 0 0 0 0 0 -8 -16 -1 -6 -52 -52 -2
0 0 0 0 0 0 0 0 0 0 0 0 0 0 0 0 0 0 0 0 0 0 0 0 0 0 0 0 0 0 0 0 0 0 0 0 0 0 0 -45 -111 -2 -20 -4 -18
0 0 0 0 0 0 0 0 0 0 0 0 0 -1 0 0 0 0 0 -1 0 0 0 0 0 0 0 0 0 0 0 0 0 0 0 0 0 0 -2 -38 -14 -9 -1 -8 -23
0 0 0 0 0 0 0 0 0 0 0 0 -4 -10 -1 0 0 0 0 0 -3 0 0 0 0 0 0 0 0 0 0 0 0 0 0 -4 0 0 -2 -7 0 0 -5 -18 -31
0 0 0 0 0 0 0 0 0 0 0 -1 -9 -1 -1 -5 -9 0 0 0 -1 -1 0 0 0 0 0 0 0 0 0 0 0 0 0 0 -3 -6 -22 -12 -3 -2 -12 -32 -28
0 0 0 0 0 0 0 0 0 0 0 -1 0 -3 -1 -1 -3 0 0 -1 0 -1 -1 0 -2 0 -1 -1 0 0 0 0 0 -1 0 -1 -3 -18 -24 -8 -12 -23 -40 -41 -41
0 0 0 0 0 0 0 0 0 0 0 -1 0 0 -2 -3 -8 0 -1 0 -1 -1 0 0 0 0 -7 -3 -1 0 0 0 0 -1 0 -1 -20 -51 -39 -10 -8 -27 -59 -60 -49
0 0 0 0 0 0 0 0 0 0 0 0 0 0 0 0 -1 -53 -25 -28 -52 -6 0 0 0 -2 -1 -9 -13 -3 0 0 0 -3 -4 -3 -12 -61 -13 -8 -14 -30 -51 -57 -60
0 0 0 0 0 0 0 0 0 0 0 0 0 0 0 0 0 0 0 0 -29 -17 -51 -45 -3 0 -4 -13 -13 0 0 -2 -1 -5 -13 -2 -46 -48 -3 -15 -5 -32 -51 -56 -44
0 0 0 0 0 0 0 -1 0 0 0 0 0 0 0 0 0 0 0 0 0 -11 -233 -85 -8 -3 -2 -1 -30 -1 -1 -3 -2 -1 -1 -10 -6 -30 -17 -25 -26 -13 -34 -47 -48
0 0 0 -1 -2 0 0 0 0 0 0 0 0 0 0 0 0 0 0 0 -7 -2 -38 -22 -15 -10 -6 -26 -1 0 -1 -3 -17 -29 -1 -17 -50 -298 -344 -21 -8 0 -38 -57 -37
0 0 0 0 0 -1 -4 0 -1 -1 -2 0 0 0 0 0 0 0 0 0 -18 -125 -56 -108 -8 -18 -27 -23 -21 -5 -2 -19 -46 -2 -26 -7 -22 -161 -102 -57 -28 -1 0 -14 -26
0 0 0 0 0 0 0 -37 -2 -8 -1 -1 -1 0 0 0 0 0 0 0 -5 -8 -86 -312 -45 -5 -1 -16 -1 0 -22 -2 -38 -9 -6 -2 -172 -56 -11 -12 -40 -7 -34 -13 -4
Wind_Speed
20 20 20 20 19 19 19 19 19 19 18 19 19 17 15 16 19 7 11 6 7 18 7 10 14 14 15 15 17 14 7 10 13 11 11 6 6 12 13 4 9 6 12 19 18
20 20 19 20 20 20 20 20 20 20 20 19 19 19 17 15 10 16 6 12 18 15 11 13 12 13 11 18 11 8 10 20 7 7 13 19 2 13 20 21 9 11 18 19 19
20 19 20 21 21 21 21 21 21 20 20 20 20 19 17 15 12 6 6 13 17 17 15 13 14 12 14 19 15 12 8 8 6 8 10 18 10 17 26 15 13 16 18 19 17
20 21 21 22 22 22 22 21 22 21 19 20 19 20 19 7 8 7 11 12 15 17 17 13 16 15 16 20 14 7 13 10 11 3 5 7 4 6 2 9 12 21 21 20 19
21 22 22 22 23 23 23 22 22 23 21 18 17 17 13 10 17 9 8 10 13 14 16 15 15 17 15 18 19 11 13 11 10 14 3 4 12 4 4 9 10 21 20 20 18
21 22 22 23 23 23 23 22 22 23 22 19 15 14 8 17 4 12 13 15 14 15 17 16 14 16 14 17 17 20 18 15 17 17 11 7 10 8 10 8 13 18 17 18 18
21 21 22 23 25 26 25 24 22 22 22 19 13 7 12 19 10 11 13 14 17 17 17 17 15 17 17 20 18 16 18 16 20 17 11 2 12 0 8 9 13 16 15 17 16
21 22 23 23 24 25 27 28 25 22 21 18 6 10 10 17 12 15 15 15 17 15 16 15 14 13 18 18 21 20 19 16 21 15 6 6 6 3 15 13 14 17 15 15 16
21 23 24 25 26 26 28 31 31 21 14 9 7 10 19 2 16 17 17 18 18 18 17 12 13 14 16 17 17 17 17 20 20 11 8 10 5 10 17 16 15 15 16 16 15
20 21 24 25 27 27 31 32 19 6 9 10 12 11 19 19 18 17 18 19 18 17 16 17 14 14 15 15 15 19 19 21 16 9 11 16 12 4 13 13 16 16 17 16 17
21 22 24 26 28 26 19 12 7 7 10 15 14 17 20 18 17 20 20 18 20 18 18 18 15 16 21 21 21 18 20 21 18 16 15 10 12 12 14 12 13 15 18 17 18
21 23 24 28 29 28 11 10 12 10 14 18 22 27 28 24 15 17 16 22 21 21 20 19 20 21 21 21 20 18 19 17 19 15 16 15 19 11 18 15 9 12 16 21 20
20 22 24 29 31 14 12 17 11 14 12 24 24 22 25 27 18 19 24 21 18 23 22 22 21 22 23 17 18 18 15 17 16 17 16 16 19 11 17 16 17 11 7 17 18
21 21 24 28 12 14 13 10 11 13 11 23 25 33 28 29 29 22 22 24 23 25 25 22 23 24 21 21 16 20 15 19 18 15 12 14 14 14 17 14 15 7 8 7 17
21 20 21 11 13 8 16 15 14 10 9 13 22 31 30 33 28 26 26 25 26 26 22 23 22 20 20 18 18 16 15 18 16 15 16 16 11 14 5 16 9 9 12 2 3
22 21 19 13 10 16 17 14 10 8 15 13 24 14 27 28 28 29 24 28 23 26 25 26 23 21 18 17 20 13 16 18 13 15 13 16 16 14 15 7 11 10 6 9 6
25 26 15 11 9 15 12 9 8 11 11 22 23 8 16 18 26 28 29 27 25 23 23 26 27 23 20 14 13 16 17 12 13 12 13 19 17 12 9 15 13 12 10 6 5
26 32 9 10 9 13 9 9 13 11 21 24 25 16 21 21 22 24 26 26 28 28 20 21 22 25 24 17 14 19 18 13 15 14 15 15 13 12 18 12 17 7 6 6 4
31 10 10 12 13 5 7 12 13 15 24 17 25 17 13 15 12 23 27 26 29 24 23 21 26 22 25 21 18 19 16 16 18 19 15 13 6 7 9 6 7 8 14 11 11
11 11 11 11 5 6 8 14 20 20 24 18 17 12 15 15 20 17 17 22 27 27 25 23 23 26 23 23 24 21 15 14 12 16 16 15 13 6 15 10 17 15 14 11 10
7 7 7 5 5 6 10 14 18 21 21 13 15 19 21 23 14 11 11 17 20 26 25 24 19 21 23 19 20 16 17 18 18 12 13 13 3 9 11 10 14 14 13 12 12
7 7 6 5 7 7 11 19 17 21 19 13 14 16 20 20 14 10 21 15 30 18 25 25 18 15 24 14 24 17 17 20 13 13 14 13 7 11 3 5 16 14 14 13 13
7 10 7 6 8 9 13 17 16 15 13 15 16 19 17 17 17 18 19 2 19 18 12 11 13 12 19 18 13 17 21 17 17 13 17 14 3 8 7 8 9 14 13 12 14
7 6 5 7 12 13 15 15 9 11 13 14 17 19 18 18 16 17 19 18 2 14 11 7 9 10 13 16 13 14 21 20 16 9 14 16 12 6 4 9 1 12 12 12 11
7 5 12 6 6 12 12 11 12 11 13 8 11 14 16 17 17 19 20 18 15 3 7 5 9 13 16 21 20 17 14 20 18 19 16 8 10 17 17 17 8 7 10 11 11
7 11 13 14 15 15 13 11 15 12 8 12 12 15 15 15 17 19 19 18 13 5 15 19 10 11 17 17 18 16 17 18 21 22 20 16 14 22 15 10 8 1 8 11 10
10 10 9 11 14 13 3 7 18 14 11 7 14 15 20 15 17 15 19 20 17 4 4 10 13 8 15 18 18 14 18 22 11 8 11 16 15 13 14 10 12 6 5 7 7
Wind_Direction
359 356 352 349 347 346 342 338 335 333 332 328 327 328 331 326 306 237 256 268 177 174 221 182 227 248 262 266 263 265 290 245 27 62 72 225 171 98 71 116 89 54 105 134 142
357 352 349 346 343 341 337 335 332 331 329 327 327 327 330 331 291 269 222 141 140 163 195 200 217 235 255 262 254 222 291 276 70 9 165 32 56 75 119 306 128 100 107 129 152
354 350 346 343 341 337 333 331 328 326 325 324 324 322 323 317 278 229 136 146 159 178 222 216 257 278 268 270 270 267 257 351 37 48 341 163 199 139 147 210 200 147 140 153 161
351 348 344 340 336 332 329 326 323 320 321 318 320 319 313 250 301 88 154 166 179 192 240 227 252 264 258 274 272 269 285 324 297 113 277 287 340 193 109 143 131 144 153 165 171
347 344 340 336 332 328 326 322 318 315 314 314 317 321 321 262 261 131 147 159 183 217 229 232 249 261 266 283 314 297 270 299 313 302 172 286 287 268 278 140 129 138 156 173 178
345 340 337 333 329 325 321 317 313 310 308 309 314 314 255 272 126 135 172 162 190 207 234 240 253 277 291 299 290 298 307 310 293 277 257 226 276 219 220 167 136 145 168 177 184
341 337 333 329 326 323 319 312 308 303 299 300 304 275 266 255 293 153 182 196 208 213 239 234 254 274 283 280 279 282 288 277 268 258 241 178 263 349 313 167 153 163 175 181 185
338 335 331 327 323 320 316 311 303 296 292 288 271 254 256 264 250 191 206 206 218 231 246 267 279 277 268 279 285 285 280 272 268 246 238 221 179 155 228 216 179 171 178 190 190
335 333 329 326 323 320 313 307 296 285 257 266 246 221 260 131 217 239 201 218 215 227 246 248 260 265 266 256 261 252 260 263 264 177 227 232 230 206 229 214 175 183 180 186 188
334 331 325 324 320 320 316 295 281 290 205 225 254 274 259 242 226 221 214 221 228 222 234 241 237 245 245 247 251 251 243 242 248 170 202 251 254 273 302 203 205 195 179 182 184
333 328 327 322 317 318 328 319 231 195 221 245 221 217 273 277 227 203 203 213 231 229 228 235 236 240 242 244 240 260 274 289 296 307 321 314 288 286 281 271 273 172 176 181 189
332 328 327 322 315 310 284 282 344 326 301 273 262 267 273 270 209 219 218 201 214 227 230 239 239 242 254 258 265 259 266 269 275 289 290 287 282 284 277 284 293 264 181 180 184
327 328 328 323 315 290 286 293 337 305 283 279 265 252 252 251 229 236 209 208 216 221 231 241 243 239 243 248 261 260 268 282 279 280 283 288 277 263 262 268 245 241 229 184 175
324 327 327 327 289 327 287 15 310 319 280 274 248 233 239 246 236 234 246 204 218 228 224 241 246 248 260 241 237 253 249 253 260 268 268 270 275 259 252 258 240 248 116 271 165
323 324 321 313 303 290 325 330 314 283 276 280 242 223 212 225 234 218 227 241 224 228 239 250 248 250 251 242 253 265 266 272 285 278 273 267 261 273 182 243 205 126 116 80 93
316 315 327 301 222 262 276 310 293 239 247 259 272 206 207 215 224 232 220 220 241 230 245 246 248 257 261 246 253 243 267 269 261 265 263 259 257 266 265 121 354 50 78 127 140
312 307 297 290 263 350 324 289 234 241 281 249 271 234 207 233 224 223 231 215 215 232 231 240 250 253 255 264 236 240 238 244 245 242 248 245 240 240 264 153 211 163 119 125 101
313 305 246 232 239 265 274 253 250 264 244 278 293 276 236 227 230 231 221 235 230 217 237 232 238 238 249 226 247 250 232 237 239 244 247 231 243 234 232 171 154 232 143 105 133
310 290 251 219 211 243 258 234 241 253 276 326 315 281 276 299 281 225 226 230 239 217 239 242 250 251 230 225 213 244 255 244 259 275 277 281 261 352 346 150 195 142 104 101 96
314 292 251 105 171 222 240 257 276 271 279 306 292 310 293 276 268 265 275 232 231 237 227 232 252 253 235 217 220 222 245 235 233 247 272 283 283 343 186 197 109 98 103 102 116
263 271 112 168 188 228 245 253 259 258 271 303 295 297 306 313 340 302 305 259 250 231 234 244 232 246 256 237 223 203 221 250 264 244 242 245 62 92 60 74 101 117 124 137 132
283 275 123 170 230 228 250 259 259 287 300 289 256 274 290 309 301 309 273 27 316 317 219 230 225 227 253 236 218 222 223 216 244 257 268 284 331 35 159 146 126 127 145 143 145
283 294 159 226 261 242 275 239 265 276 288 285 286 278 275 287 292 297 302 327 258 312 22 334 239 221 241 247 235 207 240 235 217 233 264 282 137 172 112 71 115 142 149 147 146
277 278 168 207 262 280 288 317 289 253 249 273 279 296 299 289 279 285 283 307 328 296 339 304 289 287 246 238 212 225 221 232 244 240 231 245 241 43 65 125 72 148 147 147 139
247 278 355 286 314 311 276 298 309 287 301 267 267 266 260 277 282 275 282 286 272 182 289 327 298 291 284 254 271 280 233 262 243 254 250 121 108 94 73 341 348 145 157 149 145
291 336 338 301 292 282 281 276 269 283 242 283 315 295 276 255 249 272 275 280 296 339 311 330 251 265 279 275 259 260 253 248 256 240 244 221 134 145 155 127 83 62 155 153 157
342 341 302 289 290 284 331 303 294 306 294 257 281 310 284 261 276 250 253 273 282 135 58 4 317 257 251 251 264 259 242 261 254 320 265 218 103 66 80 59 56 14 52 110 153